Wind_Speed
8 7 6 6 5 6 6 7 7 8 7 7 7 7 7 7 6 5 5 4 3 3 3 2 2 2 2 4 5 6 7 8 8 9 14 11 9 13 14 12 11 8 7 7 7 8 12 12 13 12 13 13 13 14 14 15 14 11 6 7 7 8 10 8 12 7 4 4 6 9 6 3 5 6 4 3 7 11 15 13 7 16 18 18 18 24 23 22
7 6 6 6 5 6 6 6 7 7 7 7 6 7 6 6 5 5 4 3 3 3 2 2 2 2 3 4 5 7 8 8 10 13 14 11 11 16 15 16 14 9 8 10 10 11 12 12 12 12 13 13 13 13 13 13 14 10 6 7 8 9 11 13 16 6 5 6 9 8 3 3 3 6 6 5 8 10 11 12 10 23 22 22 23 24 22 23
7 7 6 6 6 6 6 6 7 7 7 7 6 6 6 6 5 4 4 3 2 1 1 1 2 2 3 4 5 7 8 9 12 14 10 8 12 15 14 14 12 10 10 11 11 12 12 12 11 12 13 13 13 14 13 12 11 11 9 7 9 11 14 17 16 9 10 10 9 8 4 4 7 5 5 6 10 10 9 11 10 22 23 24 24 23 23 22
7 7 7 6 6 6 6 6 7 7 7 7 6 6 6 6 5 4 4 3 2 1 1 1 2 3 3 4 5 6 8 9 9 7 5 6 9 11 12 11 11 10 10 12 11 11 12 12 11 12 13 12 14 15 13 11 9 10 10 8 11 14 13 13 12 8 9 10 9 11 7 7 10 3 5 8 9 10 9 14 15 18 24 27 25 23 22 21
7 7 7 6 6 6 6 7 7 8 8 8 7 6 5 5 5 5 3 3 2 2 1 2 2 3 4 3 4 5 6 5 0 3 3 4 6 8 9 9 10 11 11 12 11 11 12 13 12 12 12 10 12 13 12 14 12 9 10 12 14 16 13 10 9 5 4 7 8 10 9 10 9 5 10 9 7 8 5 5 9 12 22 31 27 25 24 22
7 7 7 7 6 6 6 7 8 8 8 9 8 6 5 5 5 5 4 3 2 2 2 2 3 4 3 2 4 4 3 3 3 3 7 7 7 7 7 8 10 12 13 11 11 11 11 12 12 12 11 10 12 12 12 16 14 9 10 13 14 16 14 11 8 5 3 5 8 10 11 10 7 10 13 9 9 4 13 20 13 9 24 28 26 27 27 25
6 6 7 7 6 5 6 7 8 8 9 9 9 8 6 5 5 4 4 3 2 2 2 3 3 4 2 3 5 5 8 9 4 5 8 7 7 6 7 9 11 15 15 11 13 11 10 12 13 13 10 9 11 13 13 15 17 13 9 11 15 16 13 11 10 7 6 6 10 12 12 9 8 11 7 7 11 2 15 16 17 23 26 21 21 23 22 24
6 6 6 6 6 5 5 7 8 8 10 10 10 9 7 6 5 5 5 4 2 2 2 3 3 4 4 3 4 8 12 10 6 8 9 7 6 5 9 10 13 16 14 12 13 11 11 12 14 13 10 10 12 13 14 14 15 13 10 12 15 15 11 11 11 10 11 10 11 13 11 10 13 11 5 7 10 6 16 18 17 20 20 17 19 19 18 22
7 6 6 6 6 6 6 7 8 8 10 10 11 10 8 7 6 5 5 4 2 2 2 3 4 4 4 3 5 9 7 4 7 11 7 5 4 6 11 11 13 15 12 12 13 12 11 12 14 14 12 12 12 12 13 10 7 8 11 15 15 15 12 11 13 14 13 12 11 12 11 12 15 9 8 10 7 8 15 21 19 15 15 15 17 18 17 20
8 7 7 7 6 6 6 7 7 8 9 10 11 10 9 8 7 6 6 4 3 3 2 4 5 3 3 4 6 7 1 1 5 5 3 5 5 9 11 12 12 12 12 12 12 13 13 11 12 12 12 14 13 10 10 9 7 7 11 15 15 14 12 11 14 14 11 11 13 12 11 14 13 5 7 8 8 7 10 18 15 12 13 13 14 16 16 17
8 8 8 8 7 7 7 7 7 8 9 10 11 10 9 9 8 6 5 3 3 2 3 4 4 4 3 4 9 7 2 1 2 2 5 6 8 11 11 12 12 11 12 10 11 12 12 11 9 9 7 7 10 10 10 13 12 10 9 11 13 13 14 15 15 11 9 11 14 12 12 14 10 8 10 8 10 9 12 21 13 10 12 11 11 12 13 13
8 8 8 8 8 7 7 7 7 7 9 9 10 9 8 8 9 7 5 3 2 2 3 4 4 5 4 8 14 9 3 1 4 5 7 8 10 10 9 10 11 12 12 9 10 11 11 9 8 11 8 4 8 7 7 13 14 12 9 9 12 13 14 16 15 13 11 11 13 11 11 11 8 10 10 9 9 10 16 24 18 14 10 9 10 10 11 13
8 8 9 9 8 8 7 7 7 7 8 9 10 9 7 8 8 7 5 3 1 2 4 5 5 5 5 9 11 6 1 2 5 6 8 10 10 9 8 9 11 12 12 9 9 9 10 9 9 13 11 9 10 5 5 7 10 10 10 9 10 11 12 16 15 15 14 12 14 11 9 8 10 13 10 11 8 11 13 18 21 20 14 10 11 10 12 17
7 8 8 9 9 8 8 7 7 7 8 8 9 8 8 7 7 7 5 3 2 2 4 5 6 4 5 8 4 5 5 3 5 7 9 10 11 9 8 8 10 11 11 9 8 6 8 9 10 13 12 13 13 9 7 7 8 8 10 9 7 8 10 13 13 12 12 9 13 10 8 5 9 12 15 11 9 10 10 14 19 19 19 14 12 10 10 13
7 7 8 9 9 9 9 8 7 8 8 8 8 8 9 8 7 6 4 4 2 3 4 5 4 4 7 10 6 6 6 6 6 8 10 11 11 9 9 9 9 9 9 8 7 5 7 8 10 12 11 13 12 10 7 8 7 7 8 7 8 10 7 10 12 11 9 8 13 10 7 7 11 10 17 10 8 10 8 14 19 14 21 18 11 10 8 8
7 7 7 8 9 9 9 9 9 9 9 9 8 9 9 9 8 7 6 4 2 3 5 3 5 7 8 6 5 5 6 9 8 8 11 11 11 9 9 9 9 8 8 8 7 5 8 10 11 12 12 11 9 8 7 6 7 7 7 6 8 10 5 9 11 11 10 9 12 11 8 8 6 8 15 9 8 10 9 14 22 17 23 23 15 13 11 10
7 7 7 7 8 8 9 9 10 10 9 8 9 9 10 10 9 8 7 5 3 2 5 4 3 8 10 5 4 7 8 10 8 10 11 11 11 9 9 10 9 9 8 8 7 7 9 10 10 10 10 9 6 7 6 7 7 7 7 7 9 11 5 7 9 11 11 8 8 11 12 10 3 11 9 8 8 11 12 11 23 25 23 23 20 17 16 16
8 7 7 7 7 7 7 8 8 8 8 7 8 9 11 12 10 9 7 5 2 0 5 7 3 6 11 13 12 11 11 9 9 11 11 10 10 7 9 11 9 9 9 8 10 10 9 10 9 7 6 7 6 8 7 7 6 2 4 6 7 9 7 7 7 8 9 6 7 10 10 11 6 10 7 8 9 10 11 10 20 30 26 22 20 19 18 19
8 7 7 6 6 6 6 6 6 6 6 6 8 11 13 12 10 9 7 6 5 5 3 8 14 6 3 10 14 10 10 10 9 10 11 10 8 8 11 11 8 10 10 7 9 11 9 8 8 7 6 7 8 8 5 6 8 10 9 8 6 7 7 5 5 7 7 6 8 10 10 12 9 10 11 12 10 7 9 8 13 24 29 29 25 23 23 22
8 7 6 6 6 5 5 5 4 4 4 5 9 11 11 9 6 4 6 10 14 14 11 7 22 18 6 7 10 8 9 9 9 11 12 11 9 9 12 11 10 11 9 7 8 9 9 7 6 8 5 3 4 3 4 8 11 11 12 10 6 7 7 6 7 10 5 5 7 9 11 12 8 8 11 9 9 8 8 7 6 12 20 27 26 27 27 23
9 7 6 6 5 4 3 3 3 3 4 6 9 9 8 8 5 2 3 11 17 20 21 15 17 21 12 3 8 9 8 9 11 12 11 12 11 10 11 12 10 8 8 12 8 6 6 6 8 9 1 3 5 8 8 7 9 9 10 9 5 6 7 3 6 9 6 2 5 6 11 9 9 11 9 6 3 8 5 9 7 8 11 14 17 27 27 22
11 8 6 6 5 4 2 2 3 4 5 6 9 10 9 10 8 7 8 11 15 19 23 19 15 17 13 6 6 7 10 11 12 14 13 13 13 11 11 11 10 8 8 11 6 2 5 8 13 11 2 2 3 6 7 8 8 8 7 7 6 7 6 5 8 4 5 3 5 6 9 9 10 9 4 5 7 4 7 11 12 10 11 12 10 25 29 24
13 9 7 6 5 3 3 3 4 5 5 7 10 12 11 10 8 10 10 11 14 16 21 21 17 15 14 13 10 9 13 13 12 15 16 15 15 14 11 10 9 9 9 10 7 5 6 5 7 5 4 2 5 5 6 7 6 7 6 6 7 8 8 2 6 2 1 1 3 7 8 9 8 4 3 10 11 6 8 13 15 12 11 12 9 22 31 26
15 11 8 6 5 4 4 4 5 6 6 7 9 10 10 10 9 10 10 10 11 12 18 20 18 17 17 14 12 14 16 14 12 16 19 16 16 14 11 11 10 9 10 11 10 10 11 2 7 6 5 0 4 4 5 5 5 7 8 9 9 9 9 5 4 5 4 4 3 8 8 6 7 4 6 10 7 8 11 14 13 12 11 11 10 16 31 30
17 14 9 7 6 5 5 6 6 7 7 9 10 6 6 8 7 9 9 7 8 10 14 17 16 18 19 14 10 14 15 14 15 16 22 17 16 14 11 11 10 8 10 11 11 11 8 2 6 5 2 3 4 5 7 6 6 7 9 10 12 13 11 6 1 4 2 5 5 7 7 5 7 8 10 11 8 9 11 10 9 10 10 11 10 10 22 29
16 15 11 8 8 6 6 6 5 6 9 12 9 4 5 7 7 9 7 5 5 5 9 13 14 13 16 15 12 12 11 11 13 13 21 15 16 15 9 8 7 9 10 9 7 7 3 1 2 3 2 4 7 8 8 7 7 6 3 6 10 11 11 9 6 4 4 5 4 7 6 4 5 8 8 8 10 10 8 8 8 10 10 9 10 8 12 23
15 15 13 10 8 7 8 7 4 5 9 6 3 3 6 6 8 8 4 5 4 6 9 11 10 9 14 15 13 11 7 7 10 14 16 13 15 13 10 8 6 7 8 6 2 3 4 4 2 4 4 5 8 7 8 9 8 4 2 6 10 9 10 10 9 7 6 6 3 7 8 6 5 7 5 4 6 9 9 8 8 11 13 12 12 11 12 19
15 14 13 10 8 8 10 10 9 11 9 8 6 6 7 6 8 6 3 4 2 6 8 9 7 6 13 14 15 17 9 7 10 12 13 11 13 11 11 11 10 9 8 7 3 0 3 3 4 4 8 6 7 9 10 12 9 5 3 5 9 10 11 10 8 7 6 7 6 7 8 6 5 7 5 5 6 7 9 10 9 9 8 9 10 6 5 5
16 14 12 10 9 8 9 11 11 11 8 7 9 7 7 8 7 3 3 4 2 5 5 9 8 7 12 12 15 22 14 6 7 9 14 13 14 14 11 10 12 13 7 6 6 3 4 6 4 6 7 6 10 11 8 9 7 5 5 6 8 11 11 8 7 7 5 6 7 7 7 6 5 6 5 7 8 7 7 7 8 6 3 4 3 4 5 3
16 14 12 11 9 6 7 10 8 7 5 7 9 8 8 8 4 3 5 3 3 6 6 8 9 11 13 10 12 18 14 8 8 8 13 13 14 17 15 13 11 11 6 4 8 10 6 4 3 7 8 8 11 8 2 5 7 4 4 7 8 9 8 6 5 5 5 6 8 11 11 9 6 5 5 2 6 5 4 5 6 6 5 4 5 3 2 2
16 15 12 11 9 5 8 10 5 6 4 7 9 8 7 5 4 4 4 3 4 6 7 6 9 13 15 12 11 12 12 11 8 8 9 9 11 13 11 11 8 6 6 5 7 11 8 7 6 8 10 10 11 9 4 6 8 6 5 6 7 6 5 4 4 5 6 6 6 9 11 10 7 3 2 5 7 3 3 8 8 7 7 6 6 2 1 2
15 15 13 11 9 9 12 10 4 5 7 9 10 8 5 5 5 5 5 6 5 5 7 8 10 12 14 15 12 11 12 11 10 10 9 8 8 9 8 7 5 4 6 6 5 7 7 7 7 9 9 9 9 7 6 7 7 6 6 6 6 5 3 4 5 5 5 6 5 6 7 6 6 4 4 6 7 6 4 7 9 7 9 9 5 4 3 2
14 16 14 12 11 11 11 8 5 8 10 9 9 7 5 5 6 7 7 6 3 3 5 7 9 10 12 13 11 11 11 10 11 11 10 10 8 8 10 10 9 7 4 4 4 4 5 8 10 8 9 9 7 6 6 5 6 6 6 5 5 4 4 5 5 5 5 6 6 4 4 3 4 3 5 7 7 8 6 6 7 7 9 7 4 5 5 4
14 16 15 14 14 13 11 9 8 8 8 7 7 6 7 7 7 9 9 6 5 7 7 7 9 10 11 11 10 11 10 9 11 10 9 10 8 7 9 11 11 8 4 3 4 4 6 6 7 8 6 9 7 8 7 6 4 6 6 5 5 4 5 5 4 5 4 4 4 3 2 2 1 1 3 7 7 8 6 7 9 8 8 7 4 5 7 8
14 14 14 15 15 14 13 11 9 8 7 7 7 6 7 7 7 8 9 7 9 9 8 8 9 9 9 11 10 10 9 8 10 11 9 8 8 7 7 8 10 7 5 5 3 3 8 6 5 7 3 5 5 7 6 8 6 3 3 4 5 4 4 5 4 5 4 4 4 3 3 1 2 1 2 6 6 6 8 10 10 9 9 9 7 8 9 9
12 11 13 14 15 14 12 12 10 8 7 7 6 7 8 7 7 7 7 7 6 7 8 9 9 8 7 7 8 10 11 8 8 8 7 9 10 10 9 7 7 7 6 5 2 1 6 5 2 6 4 4 9 7 3 4 4 3 2 3 4 4 5 5 5 5 4 4 5 3 5 3 3 4 5 6 7 8 9 9 11 11 10 10 9 10 10 10
10 10 12 14 14 13 12 12 11 9 8 8 7 7 7 8 10 10 9 8 6 6 7 7 5 7 7 6 6 8 10 8 8 7 6 9 9 9 10 7 6 6 5 4 3 2 3 4 2 3 6 9 9 5 6 7 6 4 3 3 2 4 6 5 4 4 4 5 4 4 7 6 4 4 6 8 8 9 10 9 11 11 10 10 10 10 11 11
11 11 14 17 15 13 13 13 12 12 10 8 8 9 9 10 13 14 13 9 5 6 8 6 4 5 6 6 6 8 7 6 8 8 7 7 5 3 5 6 7 6 5 4 3 1 2 5 5 6 10 8 7 3 6 9 10 9 7 6 3 3 4 3 3 4 5 5 4 5 8 7 4 2 6 10 10 9 10 9 10 10 10 11 11 11 11 12
10 10 14 16 13 13 13 12 12 13 10 7 8 8 8 11 15 18 16 9 6 7 8 7 6 5 5 7 7 8 9 8 8 7 7 6 3 1 3 2 4 5 4 5 5 3 3 4 4 7 11 8 4 4 4 6 8 11 8 6 5 4 3 3 4 3 4 5 5 6 7 3 1 1 4 7 8 8 8 7 8 9 12 12 11 11 11 11
9 9 10 9 11 14 12 11 12 11 9 8 9 8 9 11 14 18 15 7 4 8 8 8 9 7 7 10 9 8 9 8 8 8 6 5 3 2 5 5 4 5 3 4 6 4 3 3 3 6 9 8 4 4 4 5 4 5 5 5 5 4 3 4 4 4 5 6 5 5 5 1 3 2 1 3 3 2 4 6 6 9 13 13 11 12 12 12
9 9 7 9 12 13 13 10 10 9 7 8 9 10 11 10 11 14 12 5 5 10 11 9 9 7 6 8 8 7 7 7 8 6 5 5 4 5 7 6 6 5 3 3 4 3 2 2 4 6 6 7 6 5 6 6 5 5 4 4 5 4 3 4 5 5 5 4 4 6 5 1 3 4 2 1 3 3 3 6 7 12 15 13 12 12 12 13
8 7 5 11 13 13 12 8 8 9 8 8 10 12 11 7 8 12 11 7 7 9 11 11 9 7 7 7 6 7 7 6 8 6 6 7 3 1 3 5 3 1 1 4 3 4 3 3 5 6 6 8 10 11 11 8 5 7 7 6 7 6 4 4 5 5 5 4 4 6 5 1 2 5 5 3 1 1 5 5 9 15 15 13 13 13 13 14
9 7 3 8 11 12 10 7 7 8 8 10 14 16 14 9 8 11 12 11 8 6 8 8 6 6 7 6 6 8 6 5 8 7 7 6 3 9 7 5 3 1 1 5 4 6 3 3 4 6 7 8 11 13 14 10 7 7 7 6 7 8 7 7 7 5 5 6 5 5 5 0 1 4 4 4 1 4 6 7 13 16 14 14 14 14 14 14
12 11 5 7 9 11 10 7 7 7 8 12 14 14 15 12 10 10 11 10 9 7 7 6 5 6 7 7 7 7 5 5 6 7 9 7 4 9 8 7 2 2 1 3 3 4 2 3 4 6 6 6 8 8 9 8 6 4 4 5 7 9 10 9 7 4 5 7 6 6 6 0 2 1 2 2 3 2 5 8 14 15 13 14 14 13 14 14
13 11 9 10 11 12 12 9 8 8 7 10 11 11 13 11 10 11 10 10 10 8 5 5 6 6 6 6 6 6 7 6 6 6 9 6 3 6 5 5 2 2 7 9 6 3 3 3 3 5 5 5 6 4 2 3 3 3 4 6 7 9 11 9 6 5 5 6 6 7 5 1 5 3 1 2 3 3 4 6 12 14 12 12 12 12 13 13
8 6 6 9 11 11 13 13 13 10 7 7 8 9 11 9 9 10 8 8 11 9 6 6 6 6 6 7 7 6 8 8 7 6 7 7 4 5 6 4 4 8 11 9 5 2 4 4 5 8 8 8 8 9 9 9 7 7 9 10 10 9 10 8 5 5 5 5 6 7 6 3 2 3 1 1 3 4 4 4 9 11 10 10 11 11 11 11
7 4 3 2 4 7 10 12 11 9 7 7 5 6 9 10 9 7 3 5 10 8 6 8 8 6 6 7 6 6 7 9 8 8 8 8 5 5 8 3 3 9 8 3 1 1 3 5 7 10 11 13 13 14 15 13 12 12 12 13 13 11 11 9 6 7 8 6 7 6 7 8 7 5 5 4 2 3 4 6 6 8 10 9 10 10 10 11
6 6 6 8 5 6 5 5 6 7 7 7 5 6 8 9 9 7 4 4 9 6 4 6 9 9 8 8 6 5 8 9 9 9 8 8 5 3 6 3 4 9 4 3 4 3 4 6 8 10 13 14 15 15 15 14 13 13 14 15 14 13 13 11 9 11 10 8 9 9 9 10 11 10 9 8 7 6 5 7 8 4 7 10 10 10 10 10
12 9 10 14 9 7 6 8 9 9 7 4 4 6 7 7 9 8 5 3 6 6 5 5 7 9 10 10 8 4 4 5 6 6 6 5 5 3 3 3 4 6 4 4 4 4 3 4 6 9 12 14 14 15 14 14 14 14 16 16 14 13 15 14 12 14 13 12 13 14 12 11 11 10 10 10 13 13 9 8 8 8 9 9 10 11 12 11
14 10 12 16 12 7 8 7 7 8 5 2 2 4 5 7 7 6 5 3 4 6 7 7 8 10 11 12 8 2 6 6 6 6 7 6 4 4 4 3 2 3 5 4 2 3 3 2 4 6 9 11 12 13 13 13 14 15 16 16 14 15 16 15 13 11 10 11 13 13 11 9 8 9 10 12 14 16 14 12 11 11 12 12 11 12 13 14
15 10 10 13 9 7 8 6 5 6 3 1 3 3 4 6 6 4 2 1 3 5 7 9 10 10 11 10 4 7 8 7 7 7 7 7 4 3 4 4 5 5 6 5 3 3 3 3 5 5 7 8 9 12 13 14 15 16 16 15 16 15 12 11 12 10 8 10 11 10 9 6 7 9 10 10 11 13 14 12 10 10 13 16 17 16 17 18
19 13 12 11 8 7 8 5 3 3 3 4 5 4 4 5 5 5 2 2 5 3 5 11 11 8 7 7 8 8 7 7 7 8 9 8 8 7 7 8 9 7 5 5 4 2 3 4 5 6 7 7 10 12 12 12 12 12 8 7 11 11 9 11 12 10 8 7 7 8 6 4 8 10 8 6 8 12 14 14 14 17 15 11 13 17 17 16
Wind_Direction
337 340 337 335 332 330 327 322 321 323 323 325 326 329 331 327 327 329 331 328 317 316 299 297 293 284 289 285 287 281 280 275 264 256 254 245 229 244 248 247 251 244 230 206 175 203 218 221 229 228 232 234 233 241 242 235 233 238 237 240 252 251 253 255 251 266 24 315 48 67 50 24 307 307 294 278 253 254 272 273 114 92 90 107 123 139 154 155
351 353 351 348 341 339 335 331 330 329 329 327 326 332 335 332 333 331 337 343 332 331 313 313 297 279 290 284 289 287 282 280 273 261 248 238 240 242 240 244 245 229 213 194 192 215 216 215 223 222 227 235 231 229 236 230 219 231 245 237 244 249 258 260 257 288 26 315 355 17 22 44 309 306 310 293 265 247 246 249 128 104 103 114 125 136 145 154
1 359 357 353 349 349 347 349 347 342 338 330 328 332 337 339 340 339 338 347 344 330 311 306 298 291 289 286 291 292 293 296 285 270 256 242 245 245 241 242 231 217 210 195 201 218 221 223 221 220 228 236 235 227 227 220 209 221 238 247 246 246 256 265 277 331 343 314 328 315 338 356 284 288 301 288 278 262 232 230 156 122 122 123 129 139 147 155
1 360 357 355 356 359 2 7 4 0 356 344 334 326 334 342 342 348 338 335 316 274 301 280 291 286 279 297 297 306 315 305 285 255 240 245 253 250 240 232 213 206 199 192 215 232 231 237 233 227 231 238 237 233 229 217 212 218 225 243 253 256 263 279 300 334 319 311 317 307 325 303 282 304 288 277 274 265 243 232 206 157 140 134 135 143 149 155
359 359 356 358 0 4 10 15 14 12 8 1 349 329 326 336 344 352 333 321 299 281 303 268 278 271 279 309 296 314 325 316 66 169 238 271 270 256 235 219 199 192 182 187 227 246 235 238 244 236 231 243 241 233 229 222 225 230 233 244 257 273 288 302 313 338 322 313 314 301 290 286 298 297 266 260 255 265 337 328 245 197 150 137 140 145 148 156
352 356 355 359 1 6 15 19 20 17 14 10 3 348 332 331 341 344 328 317 299 284 265 254 264 260 277 296 282 306 293 316 59 206 269 290 279 261 225 205 185 177 177 196 238 241 232 234 236 234 228 238 247 240 228 223 229 241 248 250 258 270 276 282 299 329 326 289 285 277 269 279 295 276 261 249 249 267 41 36 35 106 132 136 145 150 154 160
340 347 350 357 0 8 15 17 19 16 16 12 7 3 349 337 333 333 328 314 295 281 244 250 256 251 265 266 289 295 256 277 297 246 277 284 270 255 212 191 175 175 180 213 241 226 220 226 224 228 229 232 245 248 237 228 232 238 248 256 257 262 266 272 280 286 272 257 264 262 264 273 272 271 260 236 248 162 77 67 70 93 117 140 152 152 159 163
321 331 340 347 352 359 3 5 8 10 14 11 7 4 357 349 334 327 324 311 292 268 242 251 248 242 266 276 309 287 257 253 251 266 286 269 256 227 193 178 172 176 184 220 235 222 217 225 226 227 229 232 237 244 242 236 236 235 244 260 266 268 269 269 269 270 261 255 258 255 257 261 257 266 269 242 235 158 111 106 100 101 113 134 151 152 156 165
307 313 323 331 337 341 346 352 354 1 6 6 5 1 358 354 339 329 320 314 292 261 242 244 237 239 274 310 324 291 265 223 257 279 275 234 222 190 177 169 170 178 198 229 230 223 221 223 227 228 236 249 255 256 249 240 234 239 245 251 259 260 254 255 256 252 246 244 249 247 245 249 248 253 261 245 204 163 142 123 116 116 117 127 147 153 156 167
301 300 305 313 322 324 331 340 344 353 357 -0 3 1 2 357 346 335 320 314 287 260 241 233 234 247 285 323 304 287 329 116 289 294 223 194 170 165 164 170 177 191 218 232 226 227 229 233 238 241 256 264 270 276 259 244 236 250 259 253 254 261 260 256 253 245 236 237 241 239 240 244 234 215 248 215 154 195 166 126 121 121 127 138 150 160 162 165
293 292 294 299 306 312 318 327 336 345 349 355 1 3 5 2 358 346 334 321 280 252 236 230 240 265 285 294 271 274 15 114 213 164 175 166 156 155 157 180 194 208 225 227 226 233 234 246 270 263 260 269 267 263 249 246 249 258 272 267 259 264 261 255 255 247 238 241 235 231 244 242 211 202 240 181 156 207 135 115 128 127 129 143 153 168 165 166
288 285 287 291 294 300 304 314 328 338 342 351 359 5 4 3 4 357 352 341 289 231 233 234 245 277 304 281 259 259 325 238 193 176 176 165 166 169 173 200 207 211 225 223 226 239 241 258 286 258 249 294 269 261 247 235 246 260 262 267 260 255 248 242 243 234 234 240 220 218 248 239 206 225 226 154 165 199 134 124 137 138 145 153 152 160 160 179
290 281 279 282 286 290 292 302 317 331 337 344 356 1 359 356 0 0 1 351 307 226 228 223 248 290 307 284 259 233 241 222 193 182 184 183 185 195 207 218 211 220 240 244 237 234 237 254 270 259 264 277 261 305 341 238 240 258 247 253 256 254 241 224 222 223 231 229 198 202 248 219 208 226 186 143 180 202 170 153 147 146 164 171 149 159 170 179
293 284 278 275 277 281 284 290 303 323 330 336 347 350 348 347 346 352 2 0 325 244 224 223 264 291 278 277 256 210 225 200 191 192 188 192 196 207 217 218 216 230 245 256 267 236 226 248 259 264 268 266 268 302 315 246 241 251 242 245 241 258 246 203 194 211 220 194 169 197 256 222 217 205 157 152 194 205 204 167 158 154 154 163 149 156 182 173
295 289 282 275 273 275 277 284 293 308 319 326 334 338 341 338 333 333 336 352 342 254 228 229 281 298 270 266 240 231 231 189 193 196 185 192 200 206 206 208 215 226 229 239 271 251 228 246 248 252 253 249 261 280 266 230 229 232 239 236 223 251 238 167 170 198 207 161 166 211 256 245 243 185 139 154 194 212 225 149 154 150 131 145 150 146 171 166
298 293 289 282 277 273 273 279 284 294 306 315 321 328 331 324 322 313 299 320 327 259 229 225 333 319 292 273 208 206 211 198 202 191 189 197 195 191 188 194 202 209 217 226 251 251 229 237 242 249 259 250 237 245 252 241 225 213 234 242 234 244 193 150 174 191 206 184 181 212 244 251 242 128 129 159 193 212 230 149 148 147 128 137 151 158 171 168
302 298 295 290 284 279 276 276 279 287 292 300 310 315 315 309 308 304 284 278 295 264 221 204 342 294 265 260 217 209 205 203 195 183 192 206 203 186 174 190 200 199 209 220 230 235 225 230 240 246 253 252 242 240 244 245 229 202 216 234 246 250 197 157 173 183 213 214 189 201 233 257 130 113 134 171 216 226 225 172 143 146 149 151 158 167 171 169
309 302 303 298 290 285 281 280 281 284 282 287 300 302 302 299 296 293 264 246 278 229 236 224 220 280 251 235 233 216 200 193 183 186 193 205 218 201 183 199 197 193 211 218 217 221 220 223 234 243 236 231 236 240 241 248 259 290 258 233 239 254 231 194 171 173 201 206 213 209 225 253 187 148 170 183 224 244 229 201 148 145 156 163 171 177 172 171
317 306 306 303 295 292 286 285 284 280 276 279 295 299 297 291 280 274 245 227 214 181 233 204 192 236 280 205 215 200 182 181 178 192 195 197 216 210 200 209 205 206 217 210 201 209 215 218 231 241 230 228 230 227 256 306 331 343 312 270 242 253 246 222 137 142 187 194 213 224 222 234 211 171 183 185 188 227 247 227 164 151 153 162 177 182 176 174
326 311 309 305 299 298 291 290 281 268 274 282 300 302 296 290 268 236 204 218 229 232 265 228 197 222 257 172 180 158 156 178 189 200 199 195 207 210 209 217 224 219 227 233 200 196 222 233 236 240 236 277 299 315 345 337 338 330 306 286 248 231 237 216 141 141 187 239 215 231 238 231 225 203 206 206 169 175 253 267 202 178 167 173 180 177 175 170
335 316 309 307 301 301 296 287 259 256 282 291 299 289 289 327 346 342 251 238 243 242 255 259 216 227 255 188 160 163 176 191 201 207 201 195 204 212 204 211 228 215 222 244 220 162 221 252 248 245 267 26 341 354 353 333 328 316 302 300 279 246 245 191 125 138 143 271 267 264 264 245 223 223 227 251 191 154 227 271 251 218 204 209 188 170 169 161
342 320 309 306 301 302 282 245 245 262 287 287 288 276 287 339 351 329 317 277 262 242 238 248 238 235 251 242 193 195 204 196 199 207 198 194 206 211 191 193 226 222 211 236 238 170 212 245 252 241 123 57 317 347 335 320 315 299 290 288 290 282 264 115 103 142 141 157 260 262 265 264 241 233 241 253 246 186 205 251 259 236 217 240 205 160 159 159
350 329 311 302 297 288 244 243 256 268 290 292 289 282 291 327 333 320 315 286 274 250 229 229 235 238 234 228 221 217 223 212 199 198 191 193 209 217 211 206 225 230 218 213 215 244 237 220 241 229 94 29 304 320 306 305 290 274 281 272 269 268 261 187 130 180 309 104 276 279 280 293 281 266 280 251 235 193 207 239 251 243 218 239 231 157 155 163
354 339 315 295 290 273 247 259 268 278 292 293 292 283 289 314 326 328 316 282 276 259 234 221 222 230 223 220 216 215 228 229 213 193 181 194 212 214 225 235 239 243 239 220 201 235 262 234 108 102 83 332 288 292 268 274 267 251 249 254 266 265 268 289 118 112 339 318 286 285 285 284 268 228 240 254 217 178 219 234 234 235 218 230 240 165 159 168
353 344 323 297 285 269 256 270 293 312 297 277 295 297 293 312 323 330 321 282 267 250 231 216 215 226 217 205 202 214 224 236 241 203 174 190 215 209 217 232 242 246 242 239 220 224 258 324 107 133 174 214 243 259 238 234 260 254 236 238 260 276 290 308 130 132 267 265 218 234 257 252 243 229 227 233 203 194 224 230 224 228 219 217 225 186 161 163
347 344 332 306 286 269 263 278 304 316 277 260 278 297 298 313 320 324 313 276 265 222 199 191 195 211 204 188 189 217 227 233 242 190 165 192 222 223 235 223 226 253 258 266 243 221 223 191 220 261 271 253 250 254 244 234 247 262 282 266 253 265 286 284 265 247 247 264 197 192 242 265 249 254 248 229 205 198 211 221 224 222 218 213 215 214 168 162
339 340 333 313 289 265 257 264 254 268 282 285 283 296 316 316 313 318 291 265 259 192 169 167 174 187 196 188 183 210 233 204 197 165 161 201 219 226 255 235 221 243 253 278 265 250 261 191 166 292 276 257 256 253 239 230 240 259 352 299 270 257 263 259 258 258 253 279 243 189 235 264 261 267 270 251 210 192 198 211 224 221 211 203 203 212 202 185
329 333 329 316 293 268 256 257 253 253 283 343 338 302 319 312 302 312 276 272 229 170 164 166 168 188 203 194 189 215 224 160 177 167 166 207 214 217 240 242 262 270 236 235 226 312 283 200 149 246 255 252 255 255 243 230 226 229 231 278 281 270 263 256 252 252 254 276 262 223 239 246 253 262 242 214 210 206 206 203 215 229 212 196 202 200 186 183
319 323 324 315 291 278 266 260 266 259 261 320 325 307 307 299 297 295 254 269 203 166 159 167 170 194 209 191 193 224 229 177 197 183 174 202 215 224 250 258 278 290 261 213 227 249 254 246 242 244 244 244 245 245 248 247 238 241 277 299 287 271 268 264 262 265 259 260 263 257 255 253 257 262 240 201 194 214 220 194 196 210 193 165 154 59 40 19
310 313 317 309 289 290 285 271 285 293 271 295 307 304 300 289 281 260 238 240 217 194 153 154 176 192 203 197 197 222 232 219 220 185 178 197 208 225 259 275 275 286 279 211 242 257 227 205 272 273 255 255 259 256 242 261 262 252 261 274 266 255 255 256 262 276 266 250 255 254 250 253 258 260 268 215 164 194 207 166 166 183 181 127 88 64 327 294
304 303 305 301 283 261 260 265 318 351 297 277 287 291 287 261 238 246 237 266 268 202 159 165 197 192 195 211 210 205 218 226 204 170 185 199 203 215 238 256 254 267 271 241 236 253 236 184 196 242 252 264 276 279 268 250 257 258 250 264 270 253 246 257 248 248 255 251 252 262 256 244 242 257 346 75 113 163 181 160 168 169 152 117 89 100 59 26
297 294 293 291 274 246 239 245 331 338 270 265 281 279 267 248 235 230 244 287 289 198 187 206 208 194 194 213 218 198 207 225 203 190 209 205 198 209 214 224 219 220 254 248 222 243 259 248 223 205 209 238 265 268 255 238 234 245 248 249 263 258 245 259 251 235 250 260 259 287 289 248 239 235 160 127 147 178 144 138 166 160 124 118 118 118 98 68
290 287 284 276 264 251 238 240 279 286 274 280 284 267 248 248 244 239 246 264 259 210 232 233 214 201 198 210 219 202 204 222 211 204 211 209 202 203 216 224 212 208 238 270 261 240 244 263 256 223 183 192 234 254 246 231 203 220 243 240 245 253 246 249 254 243 245 262 258 268 297 264 256 247 165 150 150 153 132 111 129 127 111 121 151 137 119 87
283 282 281 273 263 251 235 235 253 267 282 289 271 249 237 241 251 263 263 242 237 255 261 248 225 211 208 218 217 200 208 227 219 213 207 207 215 206 215 232 226 220 229 235 249 249 248 253 239 231 170 156 206 246 265 284 252 220 236 245 235 234 249 255 262 264 267 292 281 249 263 260 241 0 116 123 119 130 149 131 116 120 126 133 141 115 102 85
280 283 281 270 261 252 237 234 246 258 271 270 255 240 234 241 246 255 261 242 231 245 255 254 240 223 218 225 219 205 216 228 212 218 222 213 224 219 210 232 233 229 242 236 215 226 254 266 218 211 140 122 228 253 264 285 286 247 228 238 236 229 249 261 267 278 291 307 287 238 243 265 137 206 140 125 137 152 154 143 143 157 147 132 121 103 94 87
278 283 284 271 258 253 242 233 237 244 253 253 250 242 234 244 252 248 270 287 270 258 257 251 242 240 234 225 228 213 204 216 217 216 228 222 226 225 210 212 213 211 236 255 281 244 255 284 217 185 168 212 253 273 270 262 293 316 264 244 256 254 253 259 262 266 262 263 265 240 246 234 171 209 190 164 183 171 153 153 157 152 134 122 114 105 100 93
270 263 271 268 254 245 233 224 220 220 239 248 245 252 249 248 253 256 268 286 302 294 272 257 236 243 243 223 240 226 187 194 224 224 233 227 223 225 211 185 166 203 259 296 298 288 264 287 280 218 234 228 228 275 293 275 282 289 269 255 243 241 252 263 269 263 252 255 256 244 253 246 227 224 183 186 197 172 168 173 151 136 130 124 112 105 105 102
276 259 260 261 249 228 210 206 207 214 232 248 246 253 261 262 261 267 274 279 285 268 257 258 235 232 247 232 231 235 210 203 223 228 233 220 211 248 225 176 157 202 277 306 280 264 248 273 276 265 267 240 181 202 268 261 253 250 272 303 291 254 261 256 255 260 260 267 269 259 260 258 259 244 176 188 197 185 190 182 155 151 145 127 115 111 108 104
285 267 265 261 235 200 191 195 207 221 233 243 246 246 251 258 259 263 273 291 304 275 260 264 251 227 246 249 237 234 231 229 230 233 233 214 189 331 281 226 168 191 249 268 264 274 265 278 281 266 277 274 188 192 254 257 234 225 240 275 273 270 279 257 249 262 264 269 275 271 270 275 314 213 178 192 200 202 200 178 166 163 142 126 122 115 106 103
287 268 264 241 192 179 189 199 211 224 234 238 246 252 255 258 258 259 261 265 284 276 269 269 262 242 234 242 244 243 241 240 237 239 244 226 168 178 239 247 226 192 181 248 273 289 279 277 276 271 284 286 246 214 265 296 288 244 233 245 250 250 260 266 265 260 266 271 278 283 279 319 49 45 131 178 190 236 222 184 163 137 124 120 120 114 107 104
283 271 245 185 174 181 192 202 217 228 236 238 242 252 260 270 278 278 276 260 259 271 273 276 280 282 266 249 242 241 247 254 249 247 255 241 216 212 211 208 230 224 171 215 256 287 295 270 270 272 274 272 262 249 258 275 294 298 290 274 283 287 271 274 272 267 280 287 286 288 283 15 29 1 2 113 85 30 259 202 147 122 118 116 116 116 112 108
266 257 205 180 185 187 192 209 226 226 232 242 244 247 252 269 283 279 275 253 238 255 264 266 269 278 276 266 258 249 246 253 252 249 254 251 241 111 154 153 176 273 5 281 291 43 28 293 275 271 266 273 279 279 278 275 271 284 289 280 286 295 286 269 269 280 297 295 291 293 293 32 8 331 338 345 78 138 246 215 132 119 121 123 121 122 120 114
254 251 197 189 199 194 201 235 236 225 238 249 252 252 252 258 266 268 267 259 245 239 250 257 261 264 262 256 258 257 249 254 260 260 260 257 96 90 100 106 106 99 0 286 310 41 31 268 262 269 274 282 279 274 274 267 245 252 269 276 282 286 282 273 278 295 295 286 289 285 280 24 23 323 349 349 307 178 199 173 130 124 129 133 131 127 125 121
286 284 248 200 197 198 211 238 238 234 242 245 251 259 260 260 261 263 265 263 256 246 248 264 273 269 268 265 262 259 253 245 248 254 260 257 109 104 108 93 80 262 39 20 16 33 328 245 240 261 274 277 263 251 253 253 245 246 278 299 297 294 289 277 275 289 284 281 284 279 277 110 108 309 349 327 289 223 209 169 137 133 138 140 138 135 132 130
301 290 251 205 186 201 224 241 247 252 257 256 261 265 263 258 253 260 275 284 280 278 283 284 282 285 285 277 267 257 257 259 249 249 258 251 129 119 132 111 89 15 46 48 43 10 291 274 273 268 267 271 268 266 292 318 320 311 301 291 289 303 309 301 285 272 271 282 280 274 285 151 147 167 188 272 273 273 257 191 147 141 147 145 143 143 141 140
292 289 259 216 190 207 234 245 252 259 269 274 275 271 266 259 248 251 268 283 277 277 289 281 278 293 290 281 283 270 264 269 263 251 254 252 218 147 143 141 111 81 62 42 25 338 290 282 278 272 269 275 283 296 316 328 315 292 286 283 277 282 294 299 294 272 277 301 290 278 298 313 192 179 180 277 273 280 280 216 164 153 157 157 149 150 153 149
280 297 332 301 237 238 242 241 247 257 260 260 258 260 262 261 256 240 212 268 273 269 280 279 273 276 273 274 285 286 279 279 273 261 252 258 262 116 117 146 131 101 79 16 305 255 276 263 258 265 268 272 279 289 297 300 292 285 287 287 285 286 287 289 286 279 282 285 274 281 313 319 313 320 339 349 317 273 275 261 216 165 162 171 165 165 169 162
335 320 8 21 325 268 274 290 297 299 289 280 274 274 271 266 265 248 200 269 288 276 261 272 272 269 265 264 259 262 273 274 275 276 266 260 268 128 134 177 132 110 110 266 235 207 248 259 258 263 266 268 273 277 281 282 281 281 280 278 279 281 279 274 268 270 274 274 275 288 301 296 295 302 311 317 310 282 256 264 272 234 188 187 181 184 189 178
8 341 356 3 330 284 322 339 326 312 304 307 300 286 282 275 274 273 259 277 305 300 285 281 279 273 268 266 264 271 299 297 296 308 313 303 294 288 251 223 147 139 184 239 229 199 217 257 267 274 276 276 276 278 283 287 285 283 281 278 279 277 273 274 275 273 271 273 278 283 284 281 285 295 303 306 305 296 273 253 268 273 250 219 199 203 210 204
3 348 345 341 326 310 322 321 301 292 288 290 287 287 292 287 279 275 268 275 313 320 314 304 301 300 287 271 267 2 41 16 353 350 354 345 319 304 303 299 288 256 248 253 240 165 161 261 290 298 288 283 285 285 285 284 281 282 282 285 289 286 282 283 283 282 282 279 280 286 291 290 292 299 299 296 294 291 278 255 239 240 247 240 224 221 228 234
359 351 340 331 324 324 319 300 279 284 289 343 338 332 316 302 295 284 271 316 324 332 340 328 323 323 309 293 324 46 40 16 357 351 345 331 313 308 311 309 312 300 278 273 261 164 162 255 294 301 281 278 285 284 282 285 285 281 280 285 285 280 282 287 277 269 274 281 282 284 286 299 319 313 294 287 298 304 299 292 290 286 265 243 235 239 239 240
4 357 348 339 317 301 303 295 301 325 341 348 346 340 312 299 304 318 349 338 290 292 8 350 328 314 320 348 28 28 1 342 336 331 327 315 297 289 284 278 285 291 286 281 274 246 239 254 268 276 276 284 290 291 298 301 291 281 285 305 299 290 303 312 297 286 289 293 290 282 281 331 351 337 319 320 340 333 322 322 331 333 322 285 261 260 246 232
Height
1488 1488 1487 1486 1486 1485 1485 1484 1484 1483 1482 1481 1481 1480 1479 1478 1477 1477 1477 1476 1476 1476 1476 1476 1475 1475 1475 1475 1474 1474 1473 1473 1473 1472 1471 1470 1472 1472 1472 1473 1473 1474 1475 1475 1476 1477 1478 1479 1479 1479 1480 1478 1478 1476 1475 1474 1473 1472 1472 1475 1474 1469 1462 1454 1448 1445 1444 1444 1444 1445 1448 1452 1453 1451 1450 1452 1454 1452 1452 1450 1452 1457 1459 1462 1465 1469 1472 1474
1488 1488 1487 1486 1486 1485 1484 1484 1483 1482 1482 1481 1480 1480 1479 1478 1477 1477 1477 1476 1476 1476 1476 1476 1475 1475 1475 1474 1474 1474 1473 1472 1472 1470 1469 1469 1471 1471 1471 1472 1473 1473 1474 1474 1475 1477 1477 1478 1478 1478 1478 1476 1475 1474 1473 1471 1471 1471 1470 1472 1471 1463 1455 1446 1441 1439 1443 1447 1446 1448 1450 1453 1454 1452 1452 1453 1452 1451 1453 1452 1453 1458 1460 1464 1467 1471 1474 1476
1489 1488 1487 1486 1486 1485 1484 1484 1483 1482 1481 1481 1480 1479 1478 1478 1477 1477 1477 1476 1476 1476 1476 1476 1475 1475 1475 1474 1474 1473 1472 1472 1471 1468 1467 1468 1470 1470 1470 1471 1472 1473 1473 1474 1475 1477 1477 1476 1476 1477 1476 1474 1472 1471 1470 1469 1468 1468 1469 1470 1464 1456 1450 1443 1439 1440 1445 1448 1448 1449 1450 1453 1454 1453 1454 1454 1453 1451 1450 1451 1453 1457 1461 1464 1468 1472 1475 1478
1489 1488 1487 1487 1486 1485 1484 1484 1483 1482 1481 1481 1480 1479 1478 1478 1477 1477 1476 1476 1476 1476 1476 1475 1475 1475 1475 1474 1474 1473 1473 1472 1469 1466 1466 1468 1469 1469 1469 1470 1471 1472 1472 1473 1475 1476 1476 1476 1475 1475 1474 1472 1470 1469 1467 1466 1467 1465 1467 1467 1459 1452 1449 1444 1442 1445 1449 1450 1450 1451 1452 1454 1452 1452 1454 1454 1455 1453 1448 1448 1449 1452 1457 1461 1466 1471 1475 1479
1490 1489 1488 1487 1486 1485 1485 1484 1483 1483 1482 1481 1480 1479 1478 1478 1477 1477 1476 1476 1476 1476 1476 1475 1475 1475 1475 1475 1474 1473 1474 1472 1468 1466 1467 1467 1468 1468 1469 1469 1470 1471 1472 1473 1474 1476 1475 1475 1474 1473 1473 1471 1468 1467 1465 1464 1464 1463 1462 1460 1456 1452 1451 1447 1446 1449 1451 1453 1453 1453 1454 1454 1451 1453 1453 1452 1455 1453 1448 1446 1445 1446 1453 1458 1464 1469 1472 1477
1490 1489 1488 1487 1486 1486 1485 1484 1483 1483 1482 1481 1480 1479 1478 1478 1477 1477 1476 1476 1476 1476 1476 1475 1475 1475 1475 1475 1474 1474 1475 1471 1467 1467 1467 1467 1468 1468 1468 1469 1470 1471 1472 1473 1474 1475 1474 1474 1474 1472 1471 1470 1467 1465 1462 1461 1462 1463 1460 1456 1455 1454 1452 1450 1449 1451 1454 1456 1456 1455 1454 1453 1453 1453 1451 1450 1452 1451 1450 1449 1447 1448 1453 1459 1463 1467 1469 1474
1490 1489 1488 1487 1487 1486 1485 1485 1484 1483 1482 1481 1480 1479 1479 1478 1477 1477 1477 1476 1476 1476 1476 1476 1475 1475 1475 1475 1474 1474 1474 1470 1467 1467 1467 1467 1467 1467 1468 1469 1470 1471 1471 1473 1474 1473 1473 1473 1472 1471 1470 1469 1467 1463 1460 1459 1459 1460 1459 1456 1454 1453 1451 1451 1451 1453 1455 1457 1457 1456 1454 1453 1454 1452 1449 1449 1450 1451 1454 1454 1455 1455 1458 1462 1465 1467 1469 1472
1490 1489 1488 1488 1487 1486 1486 1485 1484 1483 1482 1482 1481 1480 1479 1478 1478 1477 1477 1477 1477 1476 1476 1476 1475 1475 1475 1475 1475 1474 1472 1469 1467 1467 1466 1466 1467 1467 1468 1469 1470 1471 1471 1472 1473 1472 1472 1472 1471 1470 1468 1466 1463 1460 1457 1457 1456 1456 1458 1456 1454 1452 1451 1452 1453 1454 1455 1455 1456 1455 1454 1453 1453 1451 1449 1449 1449 1452 1455 1457 1460 1462 1463 1466 1468 1470 1471 1473
1489 1489 1488 1488 1487 1487 1486 1485 1484 1484 1483 1482 1481 1480 1479 1478 1478 1477 1477 1477 1477 1476 1476 1476 1475 1475 1475 1475 1476 1475 1470 1467 1466 1466 1466 1466 1466 1467 1468 1469 1470 1471 1472 1472 1472 1472 1471 1470 1469 1467 1465 1462 1460 1457 1455 1457 1457 1455 1456 1456 1454 1452 1451 1452 1452 1453 1453 1454 1454 1453 1453 1452 1450 1450 1449 1447 1448 1452 1455 1457 1461 1465 1467 1469 1470 1472 1474 1475
1489 1488 1488 1487 1487 1486 1486 1485 1484 1484 1483 1482 1481 1480 1479 1478 1478 1477 1477 1477 1477 1477 1476 1476 1475 1476 1476 1476 1477 1474 1469 1467 1466 1465 1466 1466 1466 1467 1468 1470 1471 1471 1472 1472 1471 1471 1470 1468 1467 1466 1465 1461 1459 1458 1455 1456 1456 1454 1454 1453 1452 1451 1449 1451 1451 1449 1451 1452 1452 1452 1452 1449 1447 1450 1450 1446 1448 1452 1454 1457 1462 1465 1468 1469 1470 1472 1474 1476
1488 1488 1487 1487 1487 1486 1486 1485 1484 1484 1483 1482 1481 1481 1479 1479 1478 1478 1477 1477 1477 1477 1476 1476 1476 1476 1476 1476 1476 1473 1469 1469 1468 1466 1466 1466 1467 1468 1468 1470 1472 1472 1472 1471 1471 1470 1469 1468 1467 1466 1465 1462 1460 1458 1455 1455 1454 1453 1454 1453 1452 1451 1450 1450 1449 1448 1450 1450 1449 1449 1449 1446 1445 1449 1447 1444 1449 1452 1453 1458 1464 1467 1469 1470 1470 1471 1473 1476
1487 1487 1487 1486 1486 1486 1485 1485 1484 1484 1483 1482 1482 1481 1480 1479 1479 1478 1477 1477 1477 1477 1477 1476 1476 1476 1476 1476 1474 1470 1469 1470 1469 1468 1468 1467 1468 1469 1469 1471 1472 1472 1471 1470 1470 1470 1469 1468 1468 1466 1464 1463 1461 1457 1455 1454 1454 1453 1454 1456 1454 1451 1450 1448 1447 1448 1449 1448 1447 1449 1452 1449 1446 1446 1442 1443 1449 1450 1452 1458 1463 1468 1471 1473 1473 1474 1476 1479
1486 1486 1486 1486 1485 1485 1485 1485 1484 1484 1483 1483 1482 1481 1481 1480 1479 1479 1478 1477 1477 1477 1477 1476 1476 1476 1476 1474 1470 1469 1470 1469 1469 1468 1468 1469 1469 1470 1470 1471 1471 1471 1470 1470 1469 1469 1470 1469 1469 1467 1464 1463 1459 1457 1455 1452 1454 1454 1454 1456 1454 1452 1448 1443 1444 1446 1446 1445 1444 1450 1457 1453 1445 1441 1440 1444 1449 1448 1451 1456 1461 1467 1471 1474 1476 1478 1480 1482
1486 1485 1485 1485 1485 1485 1484 1484 1484 1484 1483 1483 1482 1481 1481 1480 1480 1479 1478 1478 1477 1477 1477 1477 1477 1476 1476 1473 1468 1469 1469 1469 1469 1468 1468 1469 1469 1470 1470 1471 1471 1471 1470 1470 1469 1468 1469 1469 1469 1467 1465 1463 1459 1457 1456 1454 1454 1454 1454 1453 1453 1454 1445 1435 1439 1444 1443 1443 1442 1450 1458 1451 1440 1436 1438 1444 1448 1448 1449 1453 1459 1465 1470 1474 1476 1478 1480 1481
1485 1484 1484 1484 1484 1484 1484 1484 1484 1483 1483 1482 1482 1481 1481 1480 1480 1479 1479 1478 1477 1477 1477 1477 1477 1477 1476 1471 1468 1467 1467 1468 1468 1468 1469 1469 1469 1469 1470 1470 1471 1471 1471 1470 1469 1469 1469 1469 1469 1466 1464 1462 1459 1459 1457 1454 1453 1452 1457 1456 1450 1449 1441 1434 1438 1440 1442 1443 1443 1450 1456 1449 1437 1432 1437 1443 1447 1447 1449 1452 1458 1462 1468 1473 1474 1476 1479 1481
1485 1484 1484 1483 1483 1483 1483 1483 1483 1483 1483 1482 1482 1481 1480 1480 1479 1479 1479 1478 1478 1477 1477 1477 1477 1477 1476 1470 1466 1466 1467 1467 1467 1468 1468 1468 1468 1469 1469 1470 1470 1470 1471 1470 1469 1469 1469 1468 1467 1465 1462 1459 1458 1458 1457 1455 1452 1449 1453 1455 1447 1441 1438 1439 1439 1436 1438 1441 1443 1449 1452 1447 1437 1433 1438 1444 1446 1447 1448 1452 1458 1462 1466 1470 1472 1475 1478 1481
1484 1484 1483 1483 1483 1483 1483 1483 1483 1482 1482 1482 1482 1481 1480 1479 1479 1479 1478 1478 1478 1476 1477 1477 1477 1478 1473 1468 1466 1466 1466 1466 1466 1467 1467 1467 1468 1467 1469 1469 1469 1470 1470 1470 1470 1469 1468 1467 1466 1464 1460 1458 1454 1454 1460 1462 1455 1447 1447 1448 1443 1436 1435 1440 1440 1435 1435 1438 1443 1447 1448 1444 1438 1437 1441 1444 1446 1447 1447 1451 1458 1462 1464 1467 1471 1474 1478 1480
1484 1484 1483 1483 1482 1482 1482 1482 1482 1482 1482 1482 1481 1480 1479 1478 1478 1477 1477 1477 1477 1477 1478 1476 1478 1479 1470 1464 1465 1464 1464 1465 1465 1466 1467 1467 1467 1467 1468 1468 1468 1469 1468 1468 1468 1466 1466 1464 1463 1461 1458 1457 1454 1454 1462 1460 1449 1446 1445 1444 1441 1435 1433 1436 1437 1435 1435 1440 1444 1446 1447 1444 1438 1439 1442 1444 1446 1446 1445 1449 1455 1459 1463 1467 1470 1473 1476 1478
1484 1483 1483 1483 1482 1482 1482 1482 1482 1482 1481 1481 1481 1480 1478 1477 1477 1476 1476 1477 1477 1476 1474 1472 1474 1473 1464 1459 1461 1461 1462 1464 1465 1466 1466 1466 1467 1467 1467 1467 1467 1467 1466 1465 1464 1463 1463 1462 1461 1462 1458 1455 1451 1450 1454 1451 1445 1446 1445 1440 1439 1438 1435 1432 1433 1434 1436 1443 1446 1445 1446 1443 1438 1439 1440 1441 1443 1446 1447 1447 1452 1458 1462 1466 1469 1471 1474 1475
1484 1483 1483 1482 1482 1482 1482 1482 1481 1481 1482 1481 1480 1479 1478 1476 1474 1474 1475 1476 1474 1470 1466 1466 1467 1464 1460 1458 1460 1461 1462 1464 1464 1465 1465 1466 1467 1466 1466 1466 1465 1464 1464 1462 1460 1459 1459 1461 1461 1458 1454 1451 1448 1447 1449 1449 1448 1448 1446 1440 1437 1439 1437 1431 1432 1434 1436 1443 1444 1441 1442 1439 1438 1439 1438 1438 1440 1445 1449 1448 1450 1455 1460 1464 1466 1469 1471 1473
1484 1484 1483 1482 1482 1482 1482 1482 1482 1482 1482 1481 1480 1479 1477 1475 1473 1474 1475 1472 1469 1467 1465 1465 1464 1461 1459 1459 1459 1460 1462 1463 1463 1464 1464 1465 1465 1465 1464 1464 1463 1463 1462 1458 1456 1456 1459 1462 1458 1452 1450 1449 1449 1448 1449 1450 1451 1452 1450 1444 1440 1439 1436 1432 1434 1436 1438 1446 1446 1442 1442 1440 1438 1438 1436 1437 1440 1445 1449 1451 1451 1453 1457 1460 1462 1465 1469 1472
1485 1484 1483 1483 1482 1482 1482 1482 1482 1482 1482 1481 1480 1478 1477 1477 1476 1476 1475 1470 1466 1465 1464 1463 1462 1460 1459 1459 1459 1460 1460 1460 1461 1462 1462 1464 1464 1463 1461 1461 1462 1459 1457 1456 1455 1457 1461 1460 1453 1447 1447 1449 1450 1450 1451 1452 1453 1455 1452 1449 1448 1442 1435 1437 1440 1438 1440 1448 1450 1446 1446 1443 1437 1435 1436 1439 1441 1444 1449 1452 1452 1452 1455 1457 1459 1463 1468 1471
1485 1484 1484 1483 1482 1482 1482 1482 1482 1482 1482 1481 1479 1478 1478 1477 1477 1476 1475 1471 1464 1461 1460 1460 1460 1459 1458 1458 1458 1459 1458 1456 1457 1458 1460 1462 1461 1460 1459 1458 1457 1455 1454 1454 1456 1460 1460 1454 1447 1444 1447 1450 1451 1452 1453 1455 1455 1455 1454 1454 1453 1443 1439 1443 1444 1442 1441 1445 1449 1449 1449 1447 1440 1437 1440 1442 1441 1444 1449 1452 1451 1452 1454 1456 1458 1461 1465 1469
1485 1484 1484 1483 1483 1483 1482 1482 1482 1481 1481 1480 1479 1478 1478 1478 1477 1476 1474 1470 1463 1457 1456 1456 1457 1457 1456 1456 1457 1457 1456 1453 1452 1453 1457 1459 1458 1458 1458 1454 1453 1453 1450 1447 1451 1456 1453 1446 1443 1445 1448 1451 1454 1454 1455 1458 1458 1454 1453 1454 1451 1443 1440 1443 1443 1445 1446 1447 1449 1453 1458 1455 1446 1445 1446 1442 1441 1444 1448 1450 1450 1451 1453 1456 1458 1460 1463 1466
1485 1485 1483 1483 1483 1482 1482 1482 1481 1481 1481 1479 1478 1476 1478 1479 1477 1476 1474 1471 1464 1455 1453 1453 1454 1453 1452 1454 1455 1454 1454 1452 1449 1448 1452 1456 1456 1455 1454 1452 1452 1451 1447 1444 1445 1449 1448 1445 1443 1446 1449 1450 1454 1456 1454 1458 1459 1455 1450 1449 1448 1444 1441 1443 1445 1449 1456 1458 1451 1454 1469 1465 1447 1446 1448 1442 1442 1446 1447 1447 1449 1451 1453 1455 1457 1460 1463 1466
1486 1485 1483 1483 1483 1482 1483 1481 1480 1481 1479 1478 1478 1477 1479 1478 1476 1477 1474 1472 1465 1453 1450 1451 1450 1449 1449 1451 1453 1454 1454 1450 1446 1446 1450 1454 1454 1452 1451 1450 1449 1449 1446 1442 1440 1441 1444 1445 1445 1447 1449 1451 1454 1454 1451 1453 1458 1458 1450 1444 1444 1445 1446 1447 1447 1452 1461 1462 1449 1450 1469 1469 1453 1445 1443 1439 1441 1445 1447 1448 1450 1451 1453 1455 1457 1459 1463 1467
1486 1485 1484 1483 1482 1482 1482 1480 1481 1480 1478 1478 1478 1478 1480 1477 1477 1476 1475 1479 1470 1451 1447 1450 1448 1447 1447 1449 1451 1454 1455 1448 1444 1446 1449 1453 1453 1452 1453 1448 1446 1447 1444 1445 1447 1444 1442 1445 1448 1449 1451 1454 1455 1453 1449 1448 1455 1457 1450 1445 1445 1445 1448 1448 1448 1453 1455 1452 1449 1449 1457 1467 1463 1450 1440 1439 1442 1445 1448 1450 1450 1450 1451 1454 1456 1459 1462 1465
1486 1484 1483 1483 1482 1482 1481 1481 1481 1478 1478 1479 1478 1479 1479 1476 1478 1475 1481 1490 1469 1443 1443 1447 1447 1447 1446 1448 1450 1449 1448 1444 1444 1446 1448 1453 1452 1451 1452 1447 1445 1444 1440 1446 1454 1449 1443 1445 1449 1451 1453 1455 1453 1449 1445 1444 1449 1451 1445 1446 1447 1445 1446 1445 1447 1451 1450 1455 1461 1453 1450 1465 1467 1450 1440 1441 1446 1449 1449 1450 1451 1449 1450 1452 1455 1458 1460 1463
1485 1484 1483 1482 1481 1481 1481 1481 1480 1478 1478 1478 1479 1480 1476 1477 1478 1474 1486 1491 1460 1437 1442 1444 1445 1448 1445 1446 1448 1446 1443 1442 1444 1444 1446 1452 1451 1450 1450 1446 1445 1444 1438 1442 1450 1446 1442 1444 1446 1448 1452 1452 1448 1443 1440 1441 1444 1443 1444 1446 1448 1447 1445 1445 1448 1450 1453 1464 1470 1457 1452 1465 1467 1451 1443 1445 1448 1451 1450 1450 1451 1450 1452 1454 1456 1460 1462 1464
1484 1483 1482 1481 1481 1481 1481 1480 1479 1478 1478 1478 1479 1478 1477 1479 1477 1482 1494 1482 1451 1438 1441 1442 1444 1445 1444 1445 1446 1445 1443 1442 1443 1444 1446 1449 1450 1450 1449 1447 1446 1444 1441 1442 1445 1443 1439 1443 1446 1447 1448 1446 1443 1440 1439 1441 1442 1442 1447 1449 1450 1448 1444 1447 1450 1452 1463 1473 1469 1457 1451 1461 1468 1456 1445 1444 1445 1448 1450 1451 1452 1452 1454 1457 1459 1462 1464 1465
1483 1482 1481 1481 1481 1481 1480 1479 1478 1478 1479 1479 1478 1477 1478 1476 1475 1489 1491 1464 1445 1442 1438 1441 1442 1439 1443 1445 1444 1444 1444 1443 1441 1444 1448 1448 1449 1450 1450 1450 1448 1448 1449 1446 1446 1442 1438 1442 1446 1446 1446 1444 1443 1442 1441 1441 1441 1444 1448 1451 1454 1453 1451 1457 1457 1459 1475 1478 1462 1452 1446 1454 1468 1461 1448 1445 1443 1445 1448 1450 1453 1454 1455 1459 1462 1464 1465 1467
1481 1480 1480 1480 1479 1479 1478 1477 1478 1479 1478 1477 1477 1476 1478 1478 1478 1483 1474 1456 1455 1448 1435 1438 1438 1435 1441 1442 1441 1441 1443 1443 1440 1442 1446 1446 1448 1448 1449 1450 1448 1456 1459 1451 1448 1446 1443 1442 1440 1441 1444 1444 1447 1447 1444 1442 1443 1447 1450 1455 1464 1467 1470 1477 1474 1471 1479 1473 1456 1450 1449 1455 1460 1453 1447 1447 1445 1445 1446 1448 1452 1454 1456 1461 1463 1465 1467 1469
1479 1478 1478 1478 1478 1477 1477 1477 1477 1478 1477 1476 1478 1475 1476 1485 1482 1469 1458 1457 1458 1445 1433 1435 1433 1431 1437 1439 1439 1439 1440 1442 1438 1440 1442 1442 1445 1446 1446 1444 1442 1452 1458 1453 1452 1453 1452 1446 1438 1439 1441 1442 1446 1448 1449 1445 1443 1448 1450 1455 1467 1475 1485 1490 1482 1477 1478 1469 1455 1450 1455 1461 1458 1448 1443 1444 1445 1446 1447 1449 1453 1455 1458 1462 1463 1465 1467 1469
1477 1476 1476 1476 1475 1475 1475 1476 1476 1477 1477 1476 1477 1475 1478 1486 1477 1460 1453 1452 1450 1442 1435 1434 1431 1432 1435 1436 1436 1435 1438 1441 1436 1438 1440 1440 1445 1446 1446 1444 1439 1442 1448 1452 1455 1455 1460 1457 1443 1439 1439 1439 1443 1444 1445 1442 1441 1444 1443 1448 1461 1469 1481 1487 1482 1479 1477 1470 1459 1456 1461 1465 1463 1454 1444 1442 1445 1447 1449 1452 1456 1459 1461 1463 1464 1465 1467 1469
1475 1474 1474 1473 1473 1473 1474 1475 1475 1475 1477 1476 1475 1475 1479 1480 1468 1458 1452 1443 1440 1441 1436 1432 1431 1433 1435 1433 1432 1431 1436 1440 1436 1437 1439 1439 1444 1444 1444 1444 1440 1440 1446 1452 1452 1450 1458 1454 1438 1434 1436 1438 1442 1439 1438 1442 1444 1441 1437 1446 1457 1457 1462 1471 1472 1469 1470 1474 1469 1463 1461 1456 1456 1454 1444 1444 1449 1448 1451 1454 1457 1461 1461 1463 1466 1466 1469 1470
1473 1472 1472 1471 1471 1471 1472 1473 1474 1475 1476 1475 1475 1474 1472 1466 1458 1452 1445 1436 1435 1436 1436 1436 1434 1436 1438 1435 1433 1432 1434 1438 1437 1439 1439 1438 1439 1438 1438 1440 1440 1442 1445 1449 1450 1450 1458 1452 1434 1433 1438 1438 1441 1439 1436 1443 1448 1444 1444 1450 1450 1445 1450 1462 1467 1462 1465 1479 1474 1462 1460 1452 1452 1456 1447 1446 1451 1448 1452 1455 1456 1460 1462 1464 1467 1468 1470 1471
1471 1470 1470 1469 1469 1469 1470 1472 1473 1475 1475 1473 1474 1472 1462 1455 1450 1445 1439 1435 1437 1437 1439 1444 1440 1438 1442 1441 1439 1435 1435 1439 1439 1440 1441 1439 1437 1433 1433 1436 1440 1443 1442 1446 1449 1449 1456 1455 1440 1436 1442 1438 1437 1440 1438 1439 1444 1447 1450 1447 1441 1443 1447 1454 1468 1470 1473 1482 1471 1459 1462 1457 1457 1460 1450 1447 1451 1450 1452 1454 1456 1461 1463 1466 1468 1469 1471 1472
1469 1469 1468 1466 1466 1468 1469 1471 1472 1473 1473 1472 1471 1467 1459 1452 1447 1442 1437 1434 1436 1438 1441 1445 1442 1438 1441 1443 1443 1438 1437 1442 1440 1439 1440 1439 1437 1434 1432 1436 1442 1444 1443 1447 1451 1448 1451 1459 1449 1439 1441 1436 1433 1442 1446 1441 1440 1444 1445 1440 1441 1455 1459 1457 1468 1476 1478 1482 1473 1462 1459 1455 1456 1458 1451 1449 1452 1451 1451 1452 1455 1460 1463 1467 1469 1471 1472 1472
1468 1468 1465 1462 1463 1466 1468 1470 1471 1471 1471 1470 1468 1463 1456 1451 1446 1442 1438 1435 1437 1440 1440 1441 1439 1438 1441 1442 1442 1439 1438 1441 1440 1440 1440 1437 1440 1441 1437 1439 1443 1445 1446 1447 1450 1448 1448 1459 1459 1444 1438 1436 1434 1442 1450 1445 1438 1438 1441 1440 1442 1451 1457 1457 1460 1465 1473 1478 1476 1470 1463 1458 1456 1452 1449 1450 1450 1449 1451 1452 1455 1458 1462 1467 1470 1472 1473 1473
1468 1467 1463 1460 1462 1465 1466 1468 1469 1469 1468 1466 1463 1458 1451 1447 1442 1439 1437 1437 1440 1443 1441 1439 1437 1438 1440 1439 1440 1439 1438 1438 1437 1439 1439 1435 1442 1447 1442 1441 1444 1445 1447 1448 1449 1448 1447 1457 1464 1452 1441 1441 1442 1443 1447 1446 1443 1442 1444 1447 1447 1446 1449 1454 1454 1453 1460 1469 1473 1474 1470 1464 1456 1449 1448 1451 1450 1451 1453 1453 1455 1459 1463 1468 1471 1472 1474 1474
1468 1465 1461 1460 1462 1463 1465 1467 1466 1465 1464 1461 1457 1454 1449 1445 1442 1438 1437 1439 1442 1443 1440 1439 1437 1438 1439 1438 1439 1440 1439 1439 1437 1438 1439 1437 1441 1446 1442 1442 1444 1444 1447 1450 1450 1451 1452 1457 1463 1459 1452 1450 1445 1439 1438 1441 1443 1445 1446 1448 1449 1447 1450 1463 1467 1457 1454 1462 1469 1473 1473 1466 1456 1449 1449 1450 1451 1453 1454 1453 1456 1460 1465 1470 1472 1474 1475 1475
1466 1463 1459 1459 1461 1462 1464 1464 1461 1460 1459 1456 1453 1450 1447 1445 1443 1442 1440 1440 1442 1443 1441 1439 1438 1439 1440 1439 1440 1439 1439 1441 1439 1439 1441 1439 1440 1443 1442 1443 1445 1446 1449 1452 1450 1452 1455 1458 1462 1461 1455 1449 1443 1437 1436 1438 1439 1443 1446 1445 1447 1448 1450 1464 1472 1463 1457 1461 1463 1466 1472 1469 1459 1452 1451 1451 1451 1454 1456 1455 1458 1463 1467 1471 1473 1475 1476 1476
1464 1460 1458 1459 1460 1462 1463 1461 1458 1456 1455 1452 1449 1446 1443 1443 1443 1443 1442 1440 1439 1441 1441 1438 1438 1440 1440 1439 1440 1440 1440 1443 1442 1441 1441 1440 1442 1445 1446 1447 1449 1449 1452 1453 1453 1456 1459 1460 1464 1464 1455 1447 1442 1438 1435 1435 1439 1445 1446 1444 1447 1449 1449 1454 1457 1457 1460 1463 1462 1468 1473 1469 1461 1455 1453 1453 1452 1454 1456 1457 1460 1465 1469 1471 1473 1475 1476 1476
1463 1459 1458 1459 1459 1460 1461 1460 1457 1455 1451 1449 1447 1445 1443 1442 1443 1443 1442 1440 1438 1438 1439 1438 1439 1440 1439 1438 1439 1440 1443 1446 1445 1442 1441 1441 1445 1448 1448 1450 1452 1451 1453 1456 1457 1461 1463 1461 1464 1469 1466 1460 1453 1447 1442 1439 1440 1445 1447 1447 1448 1448 1448 1450 1449 1454 1464 1464 1463 1471 1472 1466 1461 1456 1454 1455 1454 1454 1455 1456 1461 1466 1469 1472 1474 1475 1476 1477
1463 1459 1456 1457 1458 1459 1458 1456 1454 1452 1449 1449 1448 1446 1445 1444 1444 1444 1443 1442 1440 1439 1440 1441 1441 1441 1440 1440 1440 1440 1442 1445 1445 1443 1441 1440 1444 1448 1449 1452 1454 1453 1456 1458 1458 1461 1464 1462 1463 1470 1475 1473 1466 1458 1453 1450 1448 1449 1450 1450 1450 1449 1452 1454 1454 1461 1469 1464 1461 1467 1468 1464 1461 1457 1457 1457 1456 1457 1457 1457 1462 1467 1470 1472 1474 1476 1477 1477
1464 1459 1455 1453 1454 1456 1455 1453 1452 1450 1449 1451 1452 1450 1447 1446 1445 1445 1446 1446 1444 1442 1443 1445 1443 1443 1444 1443 1444 1444 1443 1442 1443 1444 1443 1442 1444 1446 1448 1451 1454 1456 1459 1461 1460 1461 1464 1464 1464 1467 1469 1467 1463 1456 1451 1452 1455 1456 1454 1451 1450 1450 1452 1455 1460 1466 1467 1466 1466 1464 1462 1464 1463 1459 1461 1461 1459 1460 1460 1459 1462 1466 1470 1473 1474 1477 1477 1478
1464 1460 1458 1457 1456 1454 1452 1451 1450 1449 1448 1451 1452 1450 1448 1448 1446 1446 1448 1449 1447 1445 1446 1446 1444 1446 1448 1448 1450 1451 1448 1445 1445 1445 1444 1443 1443 1445 1450 1452 1454 1457 1459 1460 1461 1463 1467 1469 1466 1466 1465 1461 1458 1455 1452 1454 1457 1456 1455 1454 1452 1451 1452 1456 1463 1464 1462 1468 1471 1462 1459 1466 1465 1460 1462 1463 1462 1463 1463 1463 1464 1466 1470 1473 1475 1477 1477 1478
1466 1463 1461 1464 1463 1457 1454 1453 1452 1451 1449 1450 1450 1449 1450 1450 1448 1448 1449 1450 1448 1448 1450 1451 1448 1447 1448 1448 1450 1453 1452 1451 1450 1448 1446 1446 1446 1448 1451 1452 1455 1458 1460 1461 1461 1462 1468 1470 1466 1464 1464 1459 1456 1456 1454 1454 1454 1453 1454 1454 1453 1454 1455 1458 1460 1459 1459 1466 1468 1461 1462 1467 1464 1461 1462 1462 1463 1464 1465 1467 1468 1467 1469 1472 1474 1476 1477 1478
1470 1468 1465 1466 1465 1460 1458 1458 1457 1455 1454 1454 1454 1453 1453 1453 1452 1450 1450 1452 1454 1452 1452 1454 1453 1449 1448 1446 1447 1452 1456 1458 1459 1456 1454 1453 1453 1453 1454 1454 1456 1458 1459 1459 1460 1461 1466 1469 1466 1465 1464 1460 1457 1456 1454 1454 1455 1454 1453 1452 1451 1452 1452 1453 1455 1454 1455 1460 1460 1458 1462 1464 1461 1461 1462 1462 1464 1464 1464 1467 1468 1468 1469 1470 1472 1475 1476 1477
1476 1475 1472 1469 1466 1462 1460 1460 1459 1458 1455 1455 1457 1456 1455 1455 1455 1453 1452 1456 1460 1458 1456 1457 1456 1453 1451 1446 1446 1454 1461 1463 1464 1462 1461 1460 1459 1458 1458 1458 1458 1457 1457 1457 1459 1462 1468 1469 1466 1466 1469 1466 1460 1457 1456 1457 1457 1456 1454 1451 1451 1453 1453 1454 1456 1455 1457 1460 1459 1459 1463 1463 1460 1460 1461 1463 1465 1464 1463 1465 1466 1468 1469 1469 1470 1473 1475 1476
1480 1480 1478 1475 1470 1465 1462 1460 1458 1457 1457 1458 1459 1458 1458 1457 1456 1455 1456 1458 1461 1461 1461 1461 1460 1458 1454 1449 1451 1459 1464 1464 1465 1464 1462 1462 1461 1461 1461 1460 1459 1459 1459 1459 1460 1463 1468 1470 1468 1470 1475 1471 1463 1460 1458 1456 1456 1456 1456 1455 1455 1456 1456 1457 1456 1455 1458 1462 1461 1463 1466 1465 1462 1461 1461 1463 1465 1465 1464 1464 1465 1467 1467 1467 1468 1470 1473 1475
1481 1480 1479 1477 1473 1467 1462 1459 1457 1461 1464 1465 1463 1461 1460 1459 1457 1458 1461 1462 1461 1462 1464 1465 1465 1462 1460 1459 1462 1466 1466 1466 1466 1465 1464 1463 1462 1461 1461 1461 1460 1461 1461 1462 1463 1464 1466 1469 1470 1473 1476 1472 1465 1462 1461 1461 1466 1466 1461 1459 1459 1456 1458 1461 1457 1454 1457 1460 1463 1465 1464 1463 1464 1464 1463 1464 1467 1469 1468 1467 1468 1468 1466 1466 1467 1468 1469 1472